DELTA 1 DEB, 10709

Orbit data source: Space-Track

DELTA 1 DEB, 10709 is space debris in SSO originally from a launch on Thu, 29 Jul 1976 UTC launched from the Air Force Western Test Range (AFWTR). Debris objects in space refer to the collection of defunct objects orbiting the Earth. Examples of debris include non-operational satellites, rocket bodies, and fragments generated from explosions, collisions, or faulty payload assembly.

Loading next visibility...
Identifier
10709, 1976-077AE
Orbit
SSO
Country
Flag of USUS
Related business
Manufacturer
Unknown
Mission
Spacecraft
Bus & Motor
Unknown
Mass
Unknown
Launch date (UTC)
1976-07-29 (49 years ago)
Launch vehicle
Unknown
Launch site
Air Force Western Test Range (AFWTR)
Object type
Payload
Rocket body
Debris
Shape & HBR
Unknown shape, 0.1 m
Radar Cross Section
Medium (>0.1 m² and <1 m²)

Expand to show TLE details & history
Last TLE update: 12 hours ago

TLE from 12 hours ago
0 DELTA 1 DEB
1 10709U 76077AE  25311.15836021  .00000122  00000-0  11453-2 0  9993
2 10709 101.9136  16.5045 0030264 217.8365 201.3805 12.46529834238363
Epoch: 2025-11-07T03:48Z
TLE epoch observation values (Epoch: 2025-11-07T03:48:02.322Z)
Latitude
57.18087°
Longitude
-106.10988°
Altitude
1,510.585 km
Speed
7.105 km/s
True Right ascension
23h 50m 01s
True Declination
57° 02' 20"
Sunlit
Object was in full shadow at epoch
Visualization orbit readout
Latitude
Unknown
Longitude
Unknown
Altitude
Unknown
Speed
Unknown
Apparent Right ascension
Unknown
Apparent Declination
Unknown
Sunlit
N/A
Visualization observer readout
Local Sidereal Time
11:41:43
Azimuth
Unknown
Elevation
Unknown
Doppler factor
Unknown
Orbital elements
Apogee altitude
1,500.376 km
Perigee altitude
1,452.833 km
Semi-major axis
7,854.741 km
Eccentricity
0.00303
Inclination
101.9136°
RAAN
16.5045°
Arg. of periapsis
217.8365°
True anomaly
201.25451°
Mean anomaly
201.3805°
Eccentric anomaly
201.31746°
Mean motion
3.11778 °/min
Orbital period
115.47 mins
BSTAR
0.0011453
Loading maneuver chart data...
Computing Atmospheric mass density...
Loading historical data...
Loading historical data...
Loading historical data...
Loading historical data...
Loading historical data...
Loading historical data...
Loading historical data...

Documentation

Showing up to 5 results
|